Wind_Speed
8 8 8 8 8 9 9 9 9 9 8 8 8 8 9 9 9 10 10 10 10 10 10 10 10 10 10 10 10 9 9 9 9 9 9 10 10 10 10 10 10 10 10
8 8 8 9 8 9 9 9 9 9 9 9 9 9 9 9 10 10 10 10 10 11 12 12 11 11 11 11 10 9 9 8 8 8 9 10 10 10 10 11 12 12 11
9 9 9 9 9 9 9 9 9 10 10 10 10 10 10 10 10 11 11 11 11 11 12 12 11 11 11 10 10 9 9 9 9 9 10 10 10 10 11 11 12 12 11
9 9 9 9 9 9 9 9 10 10 11 11 11 11 11 11 11 10 11 11 11 12 11 11 11 11 11 10 10 10 10 11 11 10 11 11 11 12 12 12 12 11 11
10 9 10 10 9 9 10 10 11 11 11 11 11 11 11 11 11 11 11 11 12 12 12 12 12 11 11 11 11 12 11 11 11 11 11 12 12 12 12 12 12 12 12
10 10 10 10 10 10 10 11 11 11 11 11 12 12 12 12 11 11 11 12 12 13 13 13 12 12 12 12 12 13 12 12 12 12 12 12 12 12 12 11 12 12 12
10 10 10 11 11 11 11 11 11 11 12 12 12 12 12 12 12 12 12 12 13 13 13 13 13 13 13 13 13 13 13 13 13 13 13 13 13 12 12 12 12 12 13
11 11 11 12 12 12 13 13 13 13 13 12 12 12 13 13 13 13 13 13 14 14 14 14 14 14 14 14 14 14 14 14 13 13 13 13 13 13 13 13 13 13 13
12 13 13 13 13 13 14 14 14 14 14 13 13 13 14 14 14 14 14 14 14 14 14 14 14 14 14 15 15 15 15 15 14 14 14 13 13 13 13 13 13 14 14
14 14 14 14 14 14 14 14 14 14 14 14 14 15 14 14 14 15 15 15 14 14 14 15 15 15 15 15 15 16 15 15 15 14 14 14 13 13 12 12 13 13 14
15 15 15 15 15 15 15 15 14 14 14 15 15 15 15 15 15 15 15 15 15 15 15 15 15 15 15 15 15 15 15 15 15 15 15 14 14 14 14 14 14 14 14
16 16 15 16 16 16 16 15 16 15 15 16 16 16 16 16 16 16 16 15 15 15 15 15 15 15 15 15 15 15 15 15 15 15 15 15 15 15 15 14 14 14 14
17 17 17 18 18 17 17 17 17 17 17 17 17 17 17 17 17 17 16 16 15 15 15 15 15 16 16 15 15 15 15 15 15 15 15 15 16 16 16 16 15 15 15
19 19 19 19 19 19 19 19 19 19 19 18 18 18 18 18 18 18 17 17 16 16 16 16 16 16 16 16 16 16 16 16 16 16 16 16 16 17 16 17 17 16 16
20 21 21 21 21 21 21 21 21 21 21 20 20 20 19 19 18 18 18 18 17 17 17 17 17 17 16 17 17 17 18 17 17 17 17 17 17 18 18 18 17 18 18
22 23 23 23 23 23 23 23 23 23 23 22 22 21 20 20 19 20 20 19 19 19 18 18 18 18 18 18 18 18 19 19 19 19 19 19 19 19 19 19 19 19 20
24 25 25 25 26 25 26 26 25 25 25 24 23 22 22 22 21 21 21 21 20 20 19 18 19 19 20 20 20 20 20 20 20 20 20 20 20 20 20 21 21 21 20
26 26 27 28 28 28 28 28 27 27 26 26 25 25 24 24 23 23 23 23 22 21 21 20 20 21 21 21 21 21 22 22 22 21 21 22 22 22 22 22 22 21 21
27 28 28 29 29 29 30 29 29 28 28 28 27 27 27 26 25 25 24 24 24 23 23 22 22 22 22 22 22 22 23 23 22 22 22 22 22 23 23 23 22 22 22
29 29 29 29 30 31 31 30 30 29 29 29 28 29 28 27 27 27 26 25 25 24 24 24 24 23 23 23 23 23 23 23 23 23 23 23 23 23 23 23 23 23 22
30 30 30 30 30 30 30 30 30 30 29 29 29 29 28 28 27 27 27 27 26 26 25 25 25 24 24 24 23 23 23 23 23 23 24 24 24 24 24 24 24 23 23
32 32 31 31 31 31 31 31 31 31 30 30 30 29 29 28 28 28 28 28 28 27 27 27 26 25 25 25 24 24 24 24 24 24 24 24 24 24 24 24 24 24 24
33 33 32 32 32 32 32 32 31 31 31 30 30 29 29 28 29 29 29 29 29 28 28 27 26 26 25 25 25 24 25 25 25 25 25 25 25 25 25 26 26 25 25
34 34 34 34 34 33 33 32 31 31 30 30 30 29 29 30 30 29 29 29 29 29 28 28 28 27 27 26 25 25 26 26 25 25 26 25 26 26 26 26 27 27 26
34 34 34 34 34 34 33 32 31 31 30 30 30 30 31 30 30 30 29 29 29 29 29 29 29 28 28 28 28 27 26 25 25 25 25 26 26 26 26 26 27 27 27
34 34 34 34 34 33 33 33 33 32 31 31 31 31 31 31 30 30 30 30 30 29 29 29 29 29 29 29 29 28 27 27 26 26 26 26 26 26 26 27 27 27 27
Wind_Direction
271 276 280 285 286 286 289 291 289 289 293 294 297 295 291 287 283 285 284 282 280 275 275 275 275 279 281 278 277 273 268 268 268 272 276 276 275 276 280 282 284 280 278
272 275 277 282 283 284 284 283 282 284 288 291 294 293 288 283 281 282 281 279 279 277 275 275 274 274 276 277 277 272 273 274 268 273 276 278 278 279 281 280 283 284 281
271 273 275 279 278 278 280 279 281 284 286 290 292 290 288 288 287 286 281 280 280 280 280 277 273 271 271 274 273 272 271 272 270 271 272 275 277 279 281 281 281 281 279
276 279 278 280 282 279 277 279 281 283 287 289 292 290 288 288 289 287 285 284 284 284 283 280 274 270 268 269 268 269 270 269 270 273 275 275 275 276 277 279 281 281 279
279 283 287 285 286 282 280 281 282 283 286 287 289 289 288 290 288 286 284 285 285 284 284 283 277 271 268 267 267 268 269 269 270 273 276 277 278 278 277 277 280 281 280
280 285 289 289 289 286 285 285 286 286 284 284 286 289 290 290 288 284 284 285 284 283 282 280 276 272 268 267 268 269 268 267 268 271 275 278 280 279 277 275 278 280 280
280 284 288 291 292 290 287 287 287 285 284 284 285 286 288 290 289 287 286 286 283 281 279 275 272 269 267 266 267 268 268 268 269 272 275 276 278 277 275 273 275 276 277
280 282 285 288 290 289 287 287 287 286 284 284 285 288 288 287 287 287 287 287 285 281 277 272 269 268 267 266 264 266 268 270 272 272 272 273 275 275 275 276 274 275 277
280 282 283 285 287 286 285 284 284 285 285 287 287 288 288 288 288 288 287 286 284 280 274 270 267 268 269 267 264 265 267 269 270 271 270 271 273 274 275 277 275 275 274
283 283 283 284 285 286 284 282 281 283 286 288 288 287 286 286 288 288 288 286 282 277 274 271 267 267 268 267 266 265 267 267 268 269 269 269 271 271 274 276 276 277 277
284 285 287 286 285 287 287 286 286 286 287 288 287 286 286 285 285 286 287 287 283 278 275 273 270 269 268 267 266 265 266 265 266 269 269 269 269 270 272 274 275 276 277
284 285 286 287 285 284 285 285 284 285 287 288 287 286 286 285 284 284 285 286 283 280 277 274 272 270 269 268 267 265 264 265 265 267 269 269 269 272 274 277 275 274 276
282 283 285 286 285 283 282 282 283 284 285 286 286 286 285 284 282 282 283 282 280 280 279 276 272 270 268 267 267 265 263 265 267 269 271 271 270 272 274 277 276 275 276
281 281 283 284 284 283 281 280 281 282 282 284 284 285 285 283 281 280 280 279 278 278 277 276 274 270 267 267 266 265 265 266 266 269 271 272 271 272 275 276 277 276 277
282 282 282 282 282 282 281 281 281 281 280 281 281 281 282 281 279 278 278 278 277 277 277 275 274 272 269 268 267 266 265 266 267 268 270 271 272 273 274 275 277 277 278
282 282 281 280 281 281 281 281 281 280 280 280 279 279 279 279 278 278 277 276 276 276 275 274 273 273 271 272 271 269 267 268 268 268 268 270 271 274 274 275 276 277 278
283 283 281 280 279 279 279 279 279 278 277 277 277 277 278 278 276 276 276 276 275 274 273 273 272 273 272 272 272 271 270 270 270 269 268 269 270 273 276 276 275 278 278
284 283 281 280 279 278 278 277 277 277 276 275 275 275 275 276 275 274 274 274 273 272 272 273 274 275 274 271 271 271 272 271 270 270 269 270 270 272 274 276 277 277 278
284 283 282 281 279 278 277 277 276 277 276 275 274 273 273 273 274 273 272 271 270 270 271 272 274 275 276 273 272 272 272 271 270 269 269 270 272 273 275 275 277 276 276
283 284 284 282 281 279 278 277 277 277 275 274 274 272 272 272 272 271 269 268 269 269 270 271 272 273 274 275 273 272 272 270 269 269 270 271 272 272 273 275 276 276 275
282 283 284 284 282 281 279 278 276 275 275 274 273 272 271 271 269 268 268 267 267 267 269 271 271 272 272 273 274 273 273 271 269 270 271 272 272 272 273 275 276 276 275
282 282 282 282 282 281 280 278 276 274 273 273 272 270 271 271 268 266 265 266 266 266 269 270 270 272 272 271 272 273 273 272 270 269 270 271 272 273 273 275 276 276 275
281 281 281 281 280 280 279 278 275 274 273 273 271 269 269 269 268 266 265 265 265 266 268 269 268 269 270 269 270 270 272 272 270 270 270 270 270 271 272 274 275 276 275
281 281 280 279 279 278 277 276 276 275 274 273 271 270 269 267 267 266 265 264 265 266 267 267 268 268 269 269 269 270 272 270 269 269 270 269 269 271 273 274 275 275 274
282 281 280 279 278 277 275 274 273 274 273 272 271 270 269 267 267 266 264 265 266 267 267 266 265 266 266 266 268 269 271 270 269 270 270 270 271 272 273 274 274 274 274
282 281 279 279 279 276 274 273 272 273 272 272 271 270 269 268 267 266 265 265 266 266 266 266 265 264 265 266 267 268 269 269 270 271 271 272 271 272 272 273 274 273 274
Height
5852 5852 5852 5852 5852 5852 5851 5851 5850 5850 5849 5849 5848 5848 5847 5847 5847 5846 5846 5845 5845 5845 5845 5844 5844 5844 5844 5844 5843 5843 5843 5844 5844 5844 5844 5844 5844 5844 5844 5844 5844 5844 5844
5850 5850 5850 5850 5850 5850 5849 5849 5849 5848 5847 5847 5846 5845 5845 5844 5844 5844 5843 5843 5843 5842 5842 5842 5842 5842 5841 5841 5841 5841 5841 5841 5842 5842 5842 5842 5842 5842 5842 5842 5842 5841 5841
5848 5848 5848 5848 5847 5847 5847 5847 5846 5846 5845 5844 5844 5843 5843 5842 5841 5841 5840 5840 5840 5839 5839 5839 5839 5839 5839 5839 5839 5839 5839 5839 5839 5839 5840 5840 5839 5839 5839 5839 5839 5839 5839
5846 5846 5846 5845 5845 5845 5844 5844 5844 5843 5843 5842 5841 5840 5840 5839 5839 5838 5838 5837 5837 5837 5836 5836 5836 5835 5836 5836 5836 5836 5836 5837 5837 5837 5837 5837 5837 5837 5837 5837 5836 5837 5836
5844 5844 5843 5843 5843 5842 5842 5842 5841 5841 5840 5840 5839 5838 5837 5836 5836 5835 5835 5834 5834 5833 5833 5833 5833 5833 5833 5833 5833 5833 5834 5834 5834 5834 5834 5834 5834 5834 5834 5834 5834 5834 5833
5842 5842 5841 5841 5840 5840 5839 5839 5838 5838 5837 5837 5836 5835 5834 5833 5833 5832 5832 5831 5831 5830 5830 5829 5829 5829 5829 5830 5830 5830 5830 5831 5831 5831 5831 5831 5831 5831 5831 5831 5831 5830 5830
5840 5839 5839 5838 5838 5837 5837 5836 5835 5835 5834 5834 5833 5832 5832 5831 5830 5829 5828 5828 5827 5827 5826 5826 5826 5826 5826 5826 5827 5827 5827 5827 5827 5828 5828 5828 5828 5828 5827 5827 5827 5827 5827
5837 5837 5836 5836 5835 5834 5834 5833 5832 5832 5831 5831 5830 5830 5829 5828 5827 5826 5825 5824 5823 5823 5822 5822 5822 5822 5822 5823 5823 5823 5823 5824 5824 5824 5824 5824 5824 5824 5824 5824 5824 5824 5824
5834 5834 5833 5833 5832 5831 5830 5830 5829 5828 5828 5827 5827 5826 5825 5824 5823 5823 5821 5820 5819 5819 5818 5818 5818 5818 5818 5819 5819 5819 5820 5820 5820 5820 5820 5820 5821 5820 5821 5821 5820 5820 5820
5831 5831 5830 5829 5829 5828 5827 5826 5826 5825 5824 5823 5823 5822 5822 5821 5820 5819 5818 5817 5816 5815 5814 5814 5814 5814 5814 5815 5815 5815 5816 5816 5816 5817 5817 5817 5817 5817 5817 5817 5817 5817 5816
5828 5827 5826 5826 5825 5824 5823 5823 5822 5821 5821 5820 5819 5818 5818 5817 5816 5815 5814 5813 5811 5810 5810 5810 5810 5810 5810 5811 5811 5811 5812 5812 5812 5813 5813 5813 5813 5813 5813 5813 5813 5813 5813
5824 5823 5823 5822 5821 5820 5820 5819 5818 5817 5817 5816 5815 5814 5813 5812 5811 5811 5809 5808 5807 5807 5806 5806 5806 5806 5806 5806 5807 5807 5808 5808 5808 5808 5809 5809 5809 5809 5809 5809 5809 5809 5809
5820 5819 5818 5818 5817 5816 5815 5814 5814 5813 5812 5811 5810 5809 5809 5808 5807 5806 5805 5804 5803 5803 5802 5802 5802 5801 5802 5802 5802 5803 5803 5804 5804 5804 5804 5805 5805 5805 5805 5805 5804 5804 5804
5815 5815 5814 5813 5812 5811 5810 5810 5809 5808 5807 5806 5805 5804 5804 5803 5802 5801 5800 5800 5799 5799 5798 5798 5797 5797 5797 5798 5798 5798 5799 5799 5800 5800 5800 5800 5800 5800 5800 5800 5800 5800 5800
5810 5809 5809 5808 5807 5806 5805 5804 5803 5802 5802 5801 5800 5799 5798 5797 5797 5796 5795 5795 5795 5794 5794 5794 5794 5793 5793 5793 5793 5794 5794 5795 5795 5795 5795 5795 5795 5795 5795 5796 5795 5795 5795
5804 5803 5802 5802 5801 5800 5799 5798 5797 5796 5796 5795 5794 5793 5793 5792 5791 5791 5790 5790 5790 5790 5790 5789 5789 5789 5789 5789 5789 5789 5789 5790 5790 5790 5790 5790 5790 5790 5790 5790 5790 5790 5790
5798 5797 5796 5795 5794 5793 5792 5791 5790 5789 5789 5788 5788 5787 5787 5786 5786 5785 5785 5784 5784 5784 5785 5785 5784 5784 5784 5784 5784 5784 5784 5784 5784 5784 5785 5785 5785 5785 5785 5785 5785 5784 5784
5791 5789 5788 5787 5786 5785 5784 5783 5782 5782 5781 5781 5780 5780 5780 5779 5779 5779 5779 5779 5779 5779 5779 5779 5779 5779 5778 5778 5778 5778 5778 5778 5778 5778 5778 5778 5778 5779 5779 5778 5778 5778 5778
5783 5782 5780 5779 5778 5777 5776 5775 5774 5773 5773 5772 5772 5771 5771 5771 5772 5772 5772 5772 5772 5772 5773 5773 5773 5773 5773 5772 5772 5772 5772 5772 5772 5772 5772 5772 5772 5772 5772 5772 5772 5772 5772
5774 5773 5771 5770 5769 5768 5767 5766 5765 5765 5764 5764 5763 5763 5763 5763 5763 5763 5764 5765 5765 5765 5765 5766 5766 5766 5766 5766 5765 5765 5765 5765 5765 5765 5765 5765 5765 5765 5765 5765 5765 5765 5765
5765 5764 5762 5761 5760 5759 5758 5757 5757 5756 5756 5755 5754 5754 5754 5754 5754 5755 5756 5756 5757 5757 5758 5758 5759 5759 5759 5759 5759 5758 5758 5757 5757 5757 5758 5758 5758 5758 5758 5758 5758 5758 5758
5755 5754 5752 5751 5750 5749 5748 5747 5747 5747 5746 5746 5746 5745 5745 5745 5746 5746 5747 5748 5749 5749 5750 5750 5751 5751 5751 5751 5751 5751 5751 5751 5751 5751 5751 5751 5751 5751 5751 5751 5751 5751 5750
5745 5744 5742 5741 5740 5739 5738 5737 5737 5736 5736 5736 5736 5736 5736 5736 5737 5737 5738 5739 5740 5740 5741 5742 5742 5743 5743 5744 5744 5743 5743 5743 5743 5743 5743 5744 5743 5743 5743 5743 5743 5743 5743
5735 5734 5733 5731 5730 5729 5728 5727 5727 5727 5727 5727 5727 5727 5727 5727 5728 5728 5729 5730 5731 5732 5732 5733 5734 5735 5735 5735 5736 5736 5735 5735 5735 5735 5735 5736 5736 5735 5735 5735 5735 5735 5734
5725 5723 5722 5721 5719 5718 5717 5717 5717 5717 5717 5717 5717 5718 5718 5718 5719 5719 5720 5721 5722 5723 5723 5724 5725 5726 5726 5727 5727 5727 5727 5727 5727 5728 5727 5727 5728 5727 5727 5727 5726 5726 5726
5714 5713 5712 5710 5709 5708 5708 5707 5707 5707 5708 5708 5708 5708 5708 5709 5709 5710 5711 5712 5713 5714 5715 5715 5716 5717 5717 5718 5718 5719 5719 5719 5719 5720 5720 5719 5719 5719 5719 5719 5718 5718 5717